Wind_Speed
90 88 86 85 84 84 83 82 81 82 84 84 83 82 82 82 82 83 84 85 84 85 85 84 83 81 81 84 87 86 83 80 78 78 78 77 77 77 76 77 77 78
93 92 89 85 84 85 85 83 83 84 85 85 85 84 83 82 81 82 84 85 85 85 85 85 83 81 79 80 83 84 83 80 77 76 76 76 76 75 74 75 76 76
95 95 93 89 85 86 86 85 85 86 86 86 86 86 85 83 82 82 83 84 85 85 86 86 84 81 78 77 78 81 83 82 78 75 74 74 74 74 73 73 74 73
94 96 97 93 88 87 87 87 86 87 87 87 87 86 86 85 83 82 83 84 84 85 86 87 86 83 79 76 75 77 81 82 79 75 73 72 72 72 71 71 72 71
92 95 96 96 92 90 89 88 87 86 86 87 86 86 86 86 84 83 83 84 84 85 85 86 87 85 81 77 75 75 79 81 80 76 72 70 70 69 69 69 70 70
86 90 93 94 93 91 91 90 88 87 86 85 85 85 86 86 85 83 83 83 84 85 86 86 86 86 83 79 76 75 78 79 79 76 72 69 68 67 66 66 67 68
80 84 87 89 90 90 90 90 89 88 86 84 83 84 84 84 84 83 83 83 84 85 86 86 85 85 84 81 78 76 76 77 77 75 72 69 67 65 63 63 64 65
77 78 80 82 85 86 87 88 88 87 86 84 83 82 83 83 83 83 82 83 83 84 85 85 85 84 83 82 81 78 75 74 74 74 72 69 66 63 61 60 60 62
75 75 75 77 79 82 84 85 85 86 85 84 83 82 81 82 82 82 82 82 82 82 83 84 83 82 82 82 81 79 75 72 72 73 72 69 65 61 59 57 57 59
76 74 74 74 76 78 81 82 83 83 84 84 83 82 81 80 80 80 80 81 81 81 80 81 81 81 80 81 81 80 76 71 70 71 71 68 64 60 57 56 55 56
75 73 72 71 72 74 77 79 80 80 81 82 83 83 82 80 79 79 79 79 79 79 78 79 79 79 79 79 80 79 76 72 70 69 69 67 64 60 57 55 54 54
70 70 70 69 70 71 72 74 76 77 78 79 81 83 84 82 79 77 78 77 76 75 75 76 77 77 78 78 78 77 76 73 70 68 68 66 63 60 57 54 52 52
66 66 66 66 67 69 70 71 73 74 75 77 79 81 84 83 79 76 75 74 73 72 72 73 73 75 76 77 76 76 75 73 70 67 66 65 63 60 56 53 51 51
63 64 64 64 65 66 68 69 71 72 73 75 77 79 81 80 78 75 72 71 70 69 69 70 71 73 75 75 74 74 73 71 69 66 65 64 62 59 56 52 50 50
63 63 63 63 64 64 65 67 70 71 71 72 74 77 77 77 75 73 71 69 68 67 66 68 70 72 73 73 72 72 71 70 68 65 63 62 61 58 55 52 49 49
61 62 62 62 62 63 63 64 67 69 69 70 72 74 74 74 72 71 70 69 67 65 64 65 68 70 71 72 71 69 69 68 66 63 61 60 60 57 54 51 49 50
59 60 60 60 60 61 62 62 64 66 67 68 69 70 71 71 70 70 69 68 66 64 63 63 65 68 70 71 70 68 66 66 65 62 59 58 57 56 54 50 49 51
58 59 59 58 58 59 60 60 60 61 63 64 65 67 67 67 68 68 68 67 64 63 62 60 61 65 68 69 69 66 64 64 64 60 57 56 56 54 52 49 50 54
56 57 57 55 55 56 57 57 57 57 58 59 60 62 63 63 65 66 65 64 63 61 60 60 60 63 66 67 67 64 62 62 61 58 55 55 54 52 49 49 52 55
55 55 54 52 52 53 53 53 53 53 53 53 55 58 60 61 62 62 62 62 61 60 59 59 60 62 63 64 62 60 59 59 57 55 54 53 51 49 49 51 54 54
53 53 52 50 49 49 49 49 49 50 50 50 51 54 58 59 59 59 60 59 58 57 58 59 60 60 59 58 57 56 55 55 54 53 53 51 49 48 50 52 53 53
50 50 50 48 46 45 45 46 46 46 47 47 48 50 55 57 56 56 57 56 55 55 57 58 57 55 53 53 53 52 52 52 52 52 50 48 46 48 50 51 51 52
47 47 46 45 44 42 42 42 43 43 44 45 45 48 52 54 53 53 54 53 52 53 55 56 53 50 50 49 49 49 49 49 49 50 48 45 45 47 49 49 51 52
43 43 43 42 41 40 40 40 40 40 41 42 43 46 49 50 50 50 50 49 49 50 51 50 48 46 46 46 45 45 46 46 47 47 46 44 44 46 47 48 50 50
39 39 39 39 38 37 38 38 38 38 39 40 41 44 46 46 46 47 46 46 46 46 45 44 43 43 42 42 42 43 43 44 45 45 44 42 42 44 46 48 48 48
36 35 35 34 33 33 35 36 35 35 37 38 39 41 42 42 42 43 44 43 42 41 40 40 41 40 40 40 41 40 41 42 43 43 42 41 41 43 45 46 47 46
Wind_Direction
279 278 277 276 276 275 274 274 275 276 277 277 277 276 275 275 276 276 275 274 273 271 270 270 271 273 276 278 280 280 280 281 281 281 281 281 280 280 280 280 280 280
282 281 279 277 277 276 276 276 277 277 278 278 278 277 276 275 275 275 275 274 273 272 271 270 269 270 273 276 278 279 280 280 280 281 281 281 280 280 280 279 279 280
283 282 281 279 277 277 277 277 277 278 278 277 278 277 276 275 274 274 274 273 273 273 272 271 270 269 270 272 275 277 279 279 280 280 280 280 280 280 280 279 280 280
282 282 281 280 279 278 277 277 277 277 277 277 277 276 276 275 274 273 273 273 272 272 272 272 271 269 269 269 272 274 276 278 279 280 280 280 280 280 280 281 281 282
280 280 280 280 280 279 278 277 276 276 275 275 275 275 275 274 273 272 271 271 271 271 271 271 271 271 269 269 269 271 273 276 278 279 279 280 279 279 280 281 281 282
278 278 278 278 279 278 278 277 276 275 274 274 273 273 273 272 271 270 270 270 270 270 269 269 270 271 271 269 269 269 271 273 276 278 279 279 279 279 280 280 280 281
276 276 276 276 277 277 277 277 276 275 274 273 272 272 271 271 270 269 268 268 268 268 268 268 269 270 271 271 270 269 269 272 274 277 278 279 279 279 279 280 280 280
276 275 274 274 275 275 275 275 275 274 273 273 272 270 270 270 269 268 268 267 267 267 268 268 268 269 270 271 271 270 270 271 273 276 278 279 279 280 280 280 280 280
278 277 276 275 275 275 275 274 274 274 273 272 271 270 269 269 268 268 267 267 267 267 267 267 268 268 269 270 271 272 271 271 273 275 277 279 280 280 280 281 280 280
280 279 278 276 275 275 274 274 274 274 273 272 271 270 269 268 268 267 267 266 266 266 266 266 267 267 268 269 270 271 272 272 273 274 276 278 280 281 281 281 281 280
279 279 277 275 273 272 272 272 272 272 272 272 272 271 270 269 268 267 267 266 265 265 265 265 265 266 266 267 269 271 272 273 273 274 276 278 280 280 281 281 281 280
277 276 275 274 272 271 270 269 270 270 269 269 269 270 270 270 269 268 267 267 266 265 264 264 264 264 265 266 267 269 271 272 273 274 275 277 279 280 281 281 281 280
276 275 274 272 271 271 270 269 268 268 267 267 267 267 268 270 270 269 267 267 266 265 264 263 263 263 264 265 266 268 270 272 273 274 275 276 278 280 281 281 281 281
277 276 275 273 271 270 270 270 269 268 267 267 267 267 267 269 270 270 268 267 266 264 262 261 261 261 263 264 266 267 269 271 272 273 274 275 277 279 280 280 281 281
278 278 276 275 273 271 270 270 270 269 268 267 267 267 268 269 269 270 269 267 266 263 261 259 260 261 262 263 265 266 268 269 271 272 273 275 277 278 279 280 281 282
277 277 276 275 274 272 271 269 269 269 269 268 268 268 269 270 270 270 269 268 267 265 262 259 259 261 262 263 264 265 267 268 270 271 272 274 275 277 279 280 281 282
277 276 275 274 273 273 272 270 269 270 270 270 269 269 270 270 271 270 269 269 268 267 264 261 260 261 262 264 265 265 266 268 269 271 272 273 275 276 277 279 281 281
277 276 275 274 273 272 272 271 270 270 270 270 270 270 270 270 270 270 270 270 269 268 267 264 261 260 261 263 264 265 266 267 268 270 271 272 274 275 277 279 280 277
277 276 276 274 273 272 272 272 271 270 270 270 270 270 269 269 269 269 270 270 270 269 267 265 262 260 260 262 263 265 265 266 268 270 271 271 272 274 276 278 276 275
278 278 277 276 275 274 274 274 275 274 273 271 270 270 269 268 268 269 269 270 270 269 268 266 263 261 261 262 263 264 264 265 267 269 270 270 271 274 275 274 273 275
279 279 280 279 278 278 278 278 278 278 277 275 272 271 270 270 269 269 270 270 270 269 268 267 265 263 263 263 264 264 265 265 267 268 268 269 271 272 272 272 273 276
281 281 282 282 282 281 281 280 279 279 278 276 275 273 272 271 271 270 270 270 270 269 268 266 266 266 266 265 265 265 265 265 266 266 267 268 269 270 270 272 274 275
283 283 284 285 284 283 282 280 279 278 278 277 276 274 272 272 272 271 271 271 270 268 267 267 269 269 268 266 265 265 264 264 264 265 266 267 267 268 270 272 274 275
284 285 285 285 286 285 284 281 280 279 278 278 277 275 273 273 273 272 272 272 270 269 269 271 271 269 268 266 265 264 264 263 263 264 265 266 267 268 270 272 274 276
285 285 285 286 286 287 286 284 283 282 281 279 278 276 276 276 276 275 275 274 273 273 274 274 272 270 268 267 265 263 263 262 262 263 264 266 267 268 270 272 274 276
289 288 287 287 288 288 287 287 287 286 284 282 281 280 279 279 278 277 277 276 277 279 279 276 274 272 269 266 264 262 261 261 261 262 263 266 267 268 270 272 274 277
Height
10181 10181 10182 10182 10180 10177 10176 10176 10175 10173 10170 10167 10166 10164 10162 10160 10158 10156 10153 10151 10151 10150 10149 10148 10147 10147 10145 10142 10139 10140 10141 10141 10140 10137 10136 10134 10132 10131 10130 10129 10127 10126
10165 10164 10165 10166 10165 10162 10160 10161 10160 10158 10156 10154 10151 10149 10147 10146 10145 10143 10141 10139 10138 10136 10135 10134 10134 10135 10135 10132 10129 10128 10129 10129 10129 10127 10126 10124 10122 10121 10120 10119 10117 10116
10150 10147 10146 10148 10149 10146 10144 10144 10144 10142 10141 10140 10137 10135 10134 10132 10132 10130 10128 10127 10125 10123 10121 10120 10121 10123 10123 10122 10120 10118 10116 10116 10117 10118 10117 10114 10112 10111 10110 10109 10108 10107
10137 10132 10129 10130 10131 10130 10127 10127 10128 10127 10127 10126 10124 10122 10120 10118 10117 10117 10115 10113 10112 10111 10109 10107 10108 10109 10111 10112 10111 10109 10105 10104 10106 10107 10107 10105 10103 10101 10100 10099 10097 10096
10124 10119 10116 10114 10114 10113 10111 10110 10111 10111 10111 10111 10110 10109 10106 10104 10103 10102 10101 10100 10099 10098 10096 10095 10094 10095 10098 10100 10101 10099 10095 10093 10094 10097 10097 10095 10093 10092 10091 10090 10088 10086
10113 10107 10103 10101 10099 10097 10095 10093 10093 10095 10096 10096 10095 10094 10092 10090 10089 10088 10087 10087 10086 10084 10083 10082 10082 10082 10085 10087 10089 10088 10086 10085 10084 10086 10087 10085 10083 10083 10082 10081 10079 10077
10098 10095 10091 10088 10086 10083 10081 10078 10077 10078 10079 10080 10081 10080 10078 10077 10075 10074 10074 10073 10073 10071 10070 10069 10070 10071 10072 10074 10076 10076 10076 10075 10075 10075 10076 10075 10074 10074 10073 10073 10071 10069
10081 10080 10077 10075 10073 10070 10067 10064 10062 10062 10064 10065 10065 10065 10065 10064 10062 10061 10060 10060 10059 10059 10058 10057 10058 10059 10060 10061 10062 10063 10065 10065 10065 10064 10065 10065 10065 10064 10064 10064 10063 10060
10062 10062 10061 10060 10058 10055 10052 10049 10048 10047 10048 10049 10050 10051 10051 10051 10049 10048 10047 10046 10047 10047 10047 10046 10047 10048 10049 10049 10049 10051 10054 10055 10055 10054 10054 10054 10055 10054 10055 10055 10054 10052
10046 10045 10046 10046 10044 10041 10037 10035 10034 10033 10033 10034 10035 10036 10037 10037 10036 10035 10034 10034 10034 10035 10036 10036 10036 10036 10037 10038 10038 10039 10042 10044 10045 10045 10044 10044 10045 10045 10046 10046 10046 10044
10032 10031 10031 10032 10031 10029 10025 10022 10021 10021 10020 10020 10020 10020 10021 10022 10023 10023 10022 10022 10023 10024 10025 10025 10025 10026 10027 10027 10028 10029 10031 10033 10035 10035 10035 10035 10036 10036 10037 10037 10037 10036
10021 10019 10018 10018 10017 10016 10015 10012 10010 10009 10009 10008 10007 10006 10006 10007 10009 10010 10010 10010 10012 10013 10015 10014 10014 10015 10016 10017 10019 10019 10020 10022 10025 10027 10027 10026 10027 10027 10028 10029 10029 10028
10010 10008 10006 10005 10004 10003 10002 10000 9999 9998 9997 9996 9996 9994 9993 9994 9996 9997 9998 9999 10000 10002 10003 10004 10004 10005 10006 10007 10009 10010 10011 10013 10016 10018 10018 10018 10019 10019 10019 10020 10020 10020
9997 9995 9993 9992 9991 9990 9989 9987 9986 9986 9985 9985 9984 9983 9982 9983 9984 9985 9986 9988 9989 9991 9992 9994 9994 9995 9996 9998 10000 10001 10003 10005 10007 10009 10010 10009 10010 10011 10011 10012 10013 10013
9984 9982 9981 9979 9979 9978 9977 9975 9973 9973 9974 9974 9973 9971 9971 9972 9973 9973 9974 9976 9978 9979 9981 9983 9984 9985 9987 9989 9991 9993 9995 9997 9999 10000 10001 10001 10001 10002 10003 10003 10005 10005
9974 9972 9971 9969 9968 9967 9966 9965 9963 9961 9962 9963 9962 9961 9960 9961 9963 9963 9963 9965 9967 9969 9971 9973 9974 9976 9977 9979 9982 9985 9987 9989 9990 9991 9993 9994 9994 9994 9995 9995 9997 9996
9964 9962 9961 9960 9958 9957 9956 9955 9953 9952 9952 9952 9952 9951 9951 9951 9952 9952 9953 9954 9957 9959 9962 9964 9965 9966 9968 9970 9973 9977 9979 9980 9981 9983 9985 9986 9986 9987 9987 9988 9989 9988
9955 9952 9950 9950 9948 9947 9945 9945 9944 9943 9942 9942 9941 9941 9941 9942 9942 9942 9942 9944 9947 9950 9953 9955 9957 9958 9959 9961 9964 9968 9971 9971 9972 9975 9977 9977 9978 9979 9980 9981 9981 9978
9946 9943 9941 9940 9938 9937 9935 9934 9934 9934 9933 9932 9931 9931 9931 9932 9932 9932 9933 9935 9938 9941 9943 9945 9947 9949 9950 9952 9956 9960 9962 9963 9964 9966 9969 9969 9970 9971 9973 9974 9972 9969
9937 9934 9933 9931 9929 9927 9925 9924 9924 9924 9924 9924 9923 9922 9921 9922 9922 9923 9924 9926 9928 9931 9933 9935 9937 9939 9942 9945 9948 9952 9954 9954 9956 9958 9960 9961 9963 9965 9966 9965 9963 9961
9927 9925 9923 9922 9920 9918 9916 9915 9914 9914 9914 9914 9915 9914 9912 9912 9913 9914 9915 9917 9920 9922 9924 9925 9927 9930 9934 9937 9940 9943 9945 9947 9948 9950 9952 9953 9956 9958 9958 9956 9954 9954
9918 9916 9914 9913 9912 9910 9908 9906 9905 9904 9904 9905 9906 9906 9904 9903 9905 9907 9908 9909 9912 9914 9915 9916 9919 9923 9926 9929 9932 9935 9937 9939 9940 9941 9943 9946 9949 9950 9949 9948 9947 9946
9909 9908 9906 9904 9903 9902 9900 9899 9897 9896 9895 9896 9897 9897 9896 9896 9898 9900 9901 9902 9905 9907 9907 9909 9913 9916 9919 9921 9924 9927 9929 9931 9932 9933 9936 9939 9942 9942 9941 9940 9940 9938
9903 9902 9900 9897 9895 9894 9892 9891 9890 9889 9888 9888 9889 9889 9889 9890 9892 9893 9894 9896 9898 9900 9901 9903 9907 9910 9912 9914 9917 9919 9921 9923 9925 9926 9928 9931 9934 9934 9933 9933 9932 9931
9897 9896 9894 9891 9889 9887 9885 9883 9883 9882 9881 9881 9882 9882 9882 9884 9886 9886 9887 9889 9891 9893 9895 9898 9901 9904 9906 9907 9909 9912 9914 9915 9917 9919 9920 9923 9926 9926 9926 9925 9925 9924
9891 9889 9887 9885 9883 9881 9878 9877 9876 9875 9874 9874 9875 9875 9876 9877 9879 9880 9881 9882 9885 9887 9890 9892 9894 9896 9898 9900 9902 9904 9906 9908 9910 9912 9914 9916 9918 9919 9919 9918 9918 9918